Regional Weather Roundup
Issued by NWS

Home | Current Version | Previous Version | Text Only | Print | Product List | Glossary On
Versions: 1 2 3 4 5 6 7 8 9 10 11 12 13 14 15 16 17 18 19 20 21 22 23 24 25 26 27 28 29 30 31 32 33 34 35 36 37 38 39 40 41 42 43 44 45 46 47 48 49 50
000
ASUS43 KLSX 051307
RWRMO

WEATHER SUMMARY FOR MISSOURI
NATIONAL WEATHER SERVICE SPRINGFIELD MO
800 AM CDT TUE MAY 05 2015

NOTE: "FAIR" INDICATES FEW OR NO CLOUDS BELOW 12,000 FEET WITH NO
       SIGNIFICANT WEATHER AND/OR OBSTRUCTIONS TO VISIBILITY.
       CURRENT SKY AND/OR WEATHER CONDITIONS ARE NOT AVAILABLE FOR
       CHILLICOTHE AND FARMINGTON.

MOZ001>031-035>038-043-044-053-054-051400-
...NORTHERN AND WESTERN MISSOURI...

CITY           SKY/WX    TMP DP  RH WIND       PRES   REMARKS
KANSAS CTY INT PTSUNNY   63  61  93 S9        30.11R
KANSAS C DTWN  CLOUDY    65  60  84 S6        30.11R
LEE`S SUMMIT   SUNNY     64  58  80 S8        30.12R
ST JOSEPH      CLOUDY    61  60  97 E5        30.11R FOG
CHILLICOTHE      N/A     63  61  93 CALM      30.13S
KIRKSVILLE     CLOUDY    64  63  96 NE5       30.15S FOG

$$
MOZ066>068-077>081-088>096-101>105-051400-
...SOUTHWEST MISSOURI...

CITY           SKY/WX    TMP DP  RH WIND       PRES   REMARKS
SPRINGFIELD    MOSUNNY   66  56  70 SE9       30.15S
JOPLIN         MOSUNNY   65  56  72 SE7       30.13R

$$
MOZ032>034-039>042-045>050-055>058-069>072-051400-
...CENTRAL MISSOURI...

CITY           SKY/WX    TMP DP  RH WIND       PRES   REMARKS
COLUMBIA       MOSUNNY   66  58  75 S7        30.16R
JEFFERSON CITY MOSUNNY   66  56  70 SE6       30.16R
ROLLA          CLOUDY    67  58  72 S7        30.17R
SEDALIA        MOSUNNY   67  57  70 S9        30.15R
WHITEMAN AFB   MOSUNNY   65  60  82 SW3       30.12R
WARRENSBURG    MOSUNNY   63  57  82 S3        30.13R
OSAGE BEACH    CLOUDY    63  55  77 SE6       30.17R

$$
MOZ051-052-059>065-051400-
...EAST CENTRAL MISSOURI...

CITY           SKY/WX    TMP DP  RH WIND       PRES   REMARKS
ST LOUIS INTL  PTSUNNY   71  55  56 SW12      30.18R
SPIRIT OF STL  MOSUNNY   69  57  65 SW3       30.17R
ST CHARLES     PTSUNNY   68  57  68 CALM      30.17R

$$
MOZ072>076-082>087-097>100-106>115-051400-
...SOUTH CENTRAL AND SOUTHEAST MISSOURI...

CITY           SKY/WX    TMP DP  RH WIND       PRES   REMARKS
CAPE GIRARDEAU MOSUNNY   66  57  72 CALM      30.23R
FARMINGTON     MOSUNNY   63  54  72 S7        30.25S
POPLAR BLUFF   SUNNY     63  56  78 CALM      30.21R
WEST PLAINS    SUNNY     62  55  77 SE3       30.22R

$$



USA.gov is the U.S. government's official web portal to all federal, state and local government web resources and services.